Location: Prairie State College
(41.5244°N, 87.6382°W)
Time: 18:49:07
(UTC-06:00)

Cosmos 1140 Rocket - Visible Passes

Search period start: 05 December 2016 00:00
Search period end: 15 December 2016 00:00
Orbit: 745 x 768 km, 74.1° (Epoch: 04 December)

Date Brightness Start Highest point End Pass type
(mag) Time Alt. Az. Time Alt. Az. Time Alt. Az.
10 Dec 5.4 18:49:23 10° NNW 18:50:39 18° N 18:50:39 18° N visible
11 Dec 4.7 18:09:10 10° N 18:11:46 24° NNE 18:11:46 24° NNE visible
11 Dec 6.0 19:51:01 10° NW 19:51:51 14° NW 19:51:51 14° NW visible
12 Dec 4.7 17:29:21 10° NNE 17:32:55 19° ENE 17:33:16 18° ENE visible
12 Dec 4.6 19:10:05 10° NNW 19:13:23 38° NW 19:13:23 38° NW visible
13 Dec 5.3 16:50:45 10° NE 16:51:55 11° NE 16:53:04 10° ENE visible
13 Dec 3.3 18:29:29 10° NNW 18:34:39 76° ENE 18:35:50 53° SE visible
13 Dec 6.4 20:13:49 10° WNW 20:15:42 12° W 20:16:05 12° W visible
14 Dec 3.8 17:49:09 10° N 17:54:01 41° ENE 17:58:51 10° SE visible
14 Dec 5.6 19:31:33 10° NW 19:35:31 23° W 19:39:29 10° SSW visible
